User: anonymous   Login
Location: Napier
(39.4830°S, 176.9170°E)
Time: 08:05:38
(UTC+13:00)
Language:

Cosmos 1869 Rocket - Orbit

View from above orbital plane
View from above orbital plane
View from above satellite
View from above satellite

Ground track
Ground track

The orbit data is extracted from the following two-line orbital elements,

1 18215U 87062B   19316.14991771  .00000093  00000-0  83337-5 0  9990
2 18215  82.5131 180.6983 0021938 110.9678  42.1536 14.83201031746101
Epoch (UTC): 12 November 2019 03:35:52
Eccentricity: 0.0021938
inclination: 82.5131°
perigee height: 604 km
apogee height: 634 km
right ascension of ascending node: 180.6983°
argument of perigee: 110.9678°
revolutions per day: 14.83201031
mean anomaly at epoch: 42.1536°
orbit number at epoch: 74610

The dashed part of the orbit path shows where the satellite is in the earth's shadow,  

DLR